Weather History for Monroe, WI

Change the Weather History Date:

Wednesday, May 1, 2013

  Actual Average Record
Temperature  
Mean Temperature 66 °F -  
Max Temperature 82 °F 0 °F 82 °F (2013)
Min Temperature 51 °F - 33 °F (2005)
Cooling Degree Days 2    
Growing Degree Days 16 (Base 50)    
Moisture  
Dew Point 49 °F    
Average Humidity 52    
Maximum Humidity 82    
Minimum Humidity 26    
Precipitation  
Precipitation 0.00 in - - ()
Sea Level Pressure  
Sea Level Pressure 30.05 in    
Wind  
Wind Speed 12 mph (SSW)    
Max Wind Speed 18 mph    
Max Gust Speed 28 mph    
Visibility 10 miles    
Events      
Averages and records for this station are not official NWS values.
T = Trace of Precipitation, MM = Missing Value Source: NWS Daily Summary

Daily Weather History Graph

Daily Weather History Graph

Search for Another Location

Airport:

Trip Planner

Search our weather history database for the weather conditions in past years. The results will help you decide how hot, cold, wet, or windy it might be!

Date:

Astronomy

May. 01, 2013 Rise Set
Actual Time 5:52 AM CDT 7:58 PM CDT
Civil Twilight 5:21 AM CDT 8:29 PM CDT
Nautical Twilight 4:44 AM CDT 9:07 PM CDT
Astronomical Twilight 4:02 AM CDT 9:49 PM CDT
Moon 1:08 AM CDT (5/1) 11:31 AM CDT (5/1)
Length of Visible Light 15h 07m
Length of Day
14h 06m
Waning Gibbous, 59% of the Moon is Illuminated
May 1
Waning Gibbous
May 2
Last Quarter
May 9
New
May 17
First Quarter
May 24
Full

Hourly Weather History & Observations

Time (CDT) Temp. Dew Point Humidity Pressure Visibility Wind Dir Wind Speed Gust Speed Precip Events Conditions
12:15 AM 68.0 °F 51.8 °F 56% 29.91 in 10.0 mi South 15.0 mph - N/A   Clear
12:35 AM 68.0 °F 51.8 °F 56% 29.91 in 10.0 mi South 17.3 mph 21.9 mph N/A   Clear
12:55 AM 68.0 °F 51.8 °F 56% 29.92 in 10.0 mi South 17.3 mph 20.7 mph N/A   Clear
1:15 AM 68.0 °F 51.8 °F 56% 29.92 in 10.0 mi South 17.3 mph 23.0 mph N/A   Clear
1:35 AM 68.0 °F 51.8 °F 56% 29.92 in 10.0 mi South 15.0 mph 24.2 mph N/A   Clear
1:55 AM 68.0 °F 51.8 °F 56% 29.91 in 10.0 mi South 17.3 mph 24.2 mph N/A   Clear
2:15 AM 68.0 °F 51.8 °F 56% 29.92 in 10.0 mi South 17.3 mph - N/A   Clear
2:35 AM 68.0 °F 51.8 °F 56% 29.92 in 10.0 mi South 15.0 mph 21.9 mph N/A   Clear
2:55 AM 66.2 °F 51.8 °F 60% 29.93 in 10.0 mi SSW 12.7 mph - N/A   Clear
3:15 AM 64.4 °F 51.8 °F 64% 29.94 in 10.0 mi SW 11.5 mph - N/A   Clear
3:35 AM 64.4 °F 51.8 °F 64% 29.95 in 10.0 mi WSW 8.1 mph - N/A   Clear
3:55 AM 62.6 °F 51.8 °F 68% 29.96 in 10.0 mi SW 9.2 mph - N/A   Clear
4:15 AM 62.6 °F 51.8 °F 68% 29.96 in 10.0 mi SSW 13.8 mph - N/A   Clear
4:35 AM 62.6 °F 51.8 °F 68% 29.97 in 10.0 mi SSW 10.4 mph - N/A   Clear
4:55 AM 62.6 °F 51.8 °F 68% 29.97 in 10.0 mi SSW 11.5 mph - N/A   Clear
5:15 AM 62.6 °F 51.8 °F 68% 29.98 in 10.0 mi SSW 10.4 mph - N/A   Clear
5:35 AM 60.8 °F 51.8 °F 72% 29.98 in 10.0 mi SSW 9.2 mph - N/A   Clear
5:55 AM 60.8 °F 53.6 °F 77% 30.00 in 10.0 mi SSW 9.2 mph - N/A   Scattered Clouds
6:15 AM 60.8 °F 55.4 °F 82% 30.00 in 10.0 mi South 9.2 mph - N/A   Mostly Cloudy
6:35 AM 60.8 °F 55.4 °F 82% 30.01 in 10.0 mi South 10.4 mph - N/A   Overcast
7:15 AM 62.6 °F 53.6 °F 72% 30.03 in 10.0 mi South 8.1 mph - N/A   Overcast
7:35 AM 64.4 °F 53.6 °F 68% 30.04 in 10.0 mi SSW 10.4 mph - N/A   Scattered Clouds
8:15 AM 66.2 °F 53.6 °F 64% 30.05 in 10.0 mi WSW 6.9 mph - N/A   Clear
8:35 AM 66.2 °F 53.6 °F 64% 30.06 in 10.0 mi North 3.5 mph - N/A   Clear
8:55 AM 64.4 °F 51.8 °F 64% 30.07 in 10.0 mi North 5.8 mph - N/A   Clear
9:15 AM 64.4 °F 51.8 °F 64% 30.07 in 10.0 mi North 5.8 mph - N/A   Clear
9:35 AM 66.2 °F 51.8 °F 60% 30.07 in 10.0 mi North 4.6 mph - N/A   Clear
9:55 AM 68.0 °F 51.8 °F 56% 30.07 in 10.0 mi NNE 3.5 mph - N/A   Clear
10:15 AM 69.8 °F 51.8 °F 53% 30.08 in 10.0 mi Calm Calm - N/A   Clear
10:35 AM 69.8 °F 53.6 °F 56% 30.08 in 10.0 mi Calm Calm - N/A   Clear
11:15 AM 71.6 °F 53.6 °F 53% 30.08 in 10.0 mi SSW 4.6 mph - N/A   Clear
11:35 AM 73.4 °F 53.6 °F 50% 30.08 in 10.0 mi Calm Calm - N/A   Clear
11:55 AM 73.4 °F 53.6 °F 50% 30.08 in 10.0 mi SSE 4.6 mph - N/A   Clear
12:15 PM 73.4 °F 51.8 °F 47% 30.08 in 10.0 mi South 6.9 mph - N/A   Clear
12:35 PM 75.2 °F 50.0 °F 41% 30.08 in 10.0 mi South 5.8 mph - N/A   Clear
12:55 PM 77.0 °F 53.6 °F 44% 30.07 in 10.0 mi SSW 8.1 mph - N/A   Clear
1:15 PM 78.8 °F 51.8 °F 39% 30.07 in 10.0 mi SW 6.9 mph - N/A   Clear
1:35 PM 78.8 °F 50.0 °F 36% 30.07 in 10.0 mi SW 10.4 mph - N/A   Clear
1:55 PM 78.8 °F 50.0 °F 36% 30.07 in 10.0 mi SW 10.4 mph - N/A   Scattered Clouds
2:15 PM 80.6 °F 50.0 °F 34% 30.07 in 10.0 mi SW 11.5 mph - N/A   Scattered Clouds
2:35 PM 80.6 °F 50.0 °F 34% 30.07 in 10.0 mi SW 9.2 mph 17.3 mph N/A   Clear
3:15 PM 80.6 °F 50.0 °F 34% 30.07 in 10.0 mi SW 9.2 mph - N/A   Clear
3:35 PM 80.6 °F 50.0 °F 34% 30.07 in 10.0 mi Calm Calm - N/A   Clear
3:55 PM 80.6 °F 50.0 °F 34% 30.06 in 10.0 mi SW 5.8 mph - N/A   Mostly Cloudy
4:15 PM 82.4 °F 46.4 °F 28% 30.06 in 10.0 mi SW 9.2 mph - N/A   Mostly Cloudy
4:35 PM 80.6 °F 44.6 °F 28% 30.07 in 10.0 mi SSW 8.1 mph - N/A   Scattered Clouds
5:15 PM 80.6 °F 42.8 °F 26% 30.07 in 10.0 mi South 17.3 mph - N/A   Scattered Clouds
5:35 PM 80.6 °F 42.8 °F 26% 30.07 in 10.0 mi South 13.8 mph 20.7 mph N/A   Scattered Clouds
5:55 PM 80.6 °F 42.8 °F 26% 30.07 in 10.0 mi South 11.5 mph - N/A   Scattered Clouds
6:15 PM 78.8 °F 42.8 °F 28% 30.07 in 10.0 mi South 11.5 mph 18.4 mph N/A   Scattered Clouds
6:35 PM 77.0 °F 44.6 °F 32% 30.07 in 10.0 mi SSE 10.4 mph - N/A   Clear
6:55 PM 77.0 °F 46.4 °F 34% 30.07 in 10.0 mi SSE 8.1 mph - N/A   Scattered Clouds
7:15 PM 77.0 °F 44.6 °F 32% 30.08 in 10.0 mi South 9.2 mph - N/A   Scattered Clouds
7:35 PM 73.4 °F 46.4 °F 38% 30.08 in 10.0 mi SSE 6.9 mph - N/A   Clear
7:55 PM 71.6 °F 46.4 °F 41% 30.09 in 10.0 mi SE 6.9 mph - N/A   Clear
8:35 PM 69.8 °F 46.4 °F 43% 30.11 in 10.0 mi North 16.1 mph 21.9 mph N/A   Mostly Cloudy
8:55 PM 66.2 °F 44.6 °F 46% 30.13 in 10.0 mi North 18.4 mph 27.6 mph N/A   Mostly Cloudy
9:35 PM 62.6 °F 44.6 °F 52% 30.14 in 10.0 mi North 15.0 mph 26.5 mph N/A   Scattered Clouds
9:55 PM 60.8 °F 44.6 °F 55% 30.15 in 10.0 mi North 9.2 mph 19.6 mph N/A   Clear
10:15 PM 59.0 °F 42.8 °F 55% 30.16 in 10.0 mi North 11.5 mph 16.1 mph N/A   Clear
10:35 PM 59.0 °F 42.8 °F 55% 30.17 in 10.0 mi North 10.4 mph 17.3 mph N/A   Clear
10:55 PM 55.4 °F 42.8 °F 63% 30.18 in 10.0 mi North 12.7 mph 18.4 mph N/A   Scattered Clouds
11:15 PM 53.6 °F 41.0 °F 62% 30.18 in 10.0 mi North 17.3 mph 23.0 mph N/A   Scattered Clouds
11:35 PM 51.8 °F 41.0 °F 67% 30.18 in 10.0 mi North 16.1 mph 21.9 mph N/A   Clear
11:55 PM 51.8 °F 41.0 °F 67% 30.19 in 10.0 mi North 16.1 mph 23.0 mph N/A   Scattered Clouds